Weather History for KBOK - January, 2013

Change the Weather History Date:

Tuesday, January 22, 2013

  Actual Average Record
Temperature  
Mean Temperature 49 °F -  
Max Temperature 59 °F 55 °F 72 °F (1968)
Min Temperature 39 °F 42 °F 26 °F (1962)
Degree Days  
Heating Degree Days 16    
Moisture  
Dew Point 34 °F    
Average Humidity 62    
Maximum Humidity 86    
Minimum Humidity 30    
Precipitation  
Precipitation 0.00 in - - ()
Sea Level Pressure  
Sea Level Pressure 30.00 in    
Wind  
Wind Speed 5 mph (SE)    
Max Wind Speed 9 mph    
Max Gust Speed -    
Visibility 10 miles    
Events      
Averages and records for this station are not official NWS values.
T = Trace of Precipitation, MM = Missing Value Source: NWS Daily Summary

Daily Weather History Graph

Daily Weather History Graph

Search for Another Location

Airport or City:

Trip Planner

Search our weather history database for the weather conditions in past years. The results will help you decide how hot, cold, wet, or windy it might be!

Date:

Astronomy

Jan. 22, 2013 Rise Set
Actual Time 7:38 AM PST 5:19 PM PST
Civil Twilight 7:08 AM PST 5:49 PM PST
Nautical Twilight 6:34 AM PST 6:24 PM PST
Astronomical Twilight 6:00 AM PST 6:57 PM PST
Moon 1:46 PM PST (1/22) 4:05 AM PST (1/22)
Length of Visible Light 10h 41m
Length of Day
9h 41m
Waxing Gibbous, 83% of the Moon is Illuminated
Jan 22
Waxing Gibbous
Jan 26
Full
Feb 3
Last Quarter
Feb 9
New
Feb 17
First Quarter

Hourly Weather History & Observations

Time (PST) Temp. Windchill Dew Point Humidity Pressure Visibility Wind Dir Wind Speed Gust Speed Precip Events Conditions
12:56 AM 41.9 °F 39.0 °F 37.9 °F 86% 30.07 in 10.0 mi ESE 4.6 mph - N/A   Clear
1:56 AM 41.9 °F 39.0 °F 36.9 °F 82% 30.07 in 10.0 mi East 4.6 mph - N/A   Clear
2:56 AM 43.9 °F 41.3 °F 34.0 °F 68% 30.07 in 10.0 mi Variable 4.6 mph - N/A   Clear
3:56 AM 43.0 °F 38.8 °F 34.0 °F 71% 30.05 in 10.0 mi Variable 6.9 mph - N/A   Clear
4:56 AM 41.9 °F 38.2 °F 34.0 °F 73% 30.02 in 10.0 mi Variable 5.8 mph - N/A   Clear
5:56 AM 41.0 °F 37.1 °F 34.0 °F 76% 30.01 in 10.0 mi SE 5.8 mph - N/A   Clear
6:56 AM 39.9 °F 36.7 °F 34.9 °F 82% 30.02 in 10.0 mi Variable 4.6 mph - N/A   Clear
7:56 AM 39.9 °F 36.7 °F 36.0 °F 86% 30.01 in 10.0 mi ESE 4.6 mph - N/A   Clear
8:56 AM 43.9 °F 40.5 °F 32.9 °F 65% 30.02 in 10.0 mi ESE 5.8 mph - N/A   Clear
9:56 AM 50.9 °F - 32.9 °F 50% 30.02 in 10.0 mi East 5.8 mph - N/A   Clear
10:56 AM 54.9 °F - 39.9 °F 57% 30.04 in 10.0 mi Calm Calm - N/A   Clear
11:56 AM 59.0 °F - 27.1 °F 30% 30.04 in 10.0 mi SE 5.8 mph - N/A   Clear
12:56 PM 59.9 °F - 28.0 °F 30% 30.02 in 10.0 mi South 6.9 mph - N/A   Clear
1:56 PM 59.0 °F - 29.1 °F 32% 30.00 in 10.0 mi South 9.2 mph - N/A   Clear
2:56 PM 57.9 °F - 29.1 °F 33% 29.98 in 10.0 mi SE 6.9 mph - N/A   Clear
3:56 PM 57.9 °F - 29.1 °F 33% 29.99 in 10.0 mi South 8.1 mph - N/A   Clear
4:56 PM 52.9 °F - 34.9 °F 50% 29.96 in 10.0 mi Calm Calm - N/A   Clear
5:56 PM 52.0 °F - 34.0 °F 50% 29.94 in 10.0 mi Variable 3.5 mph - N/A   Clear
6:56 PM 48.9 °F - 34.9 °F 58% 29.94 in 10.0 mi Calm Calm - N/A   Clear
7:56 PM 45.9 °F - 34.9 °F 66% 29.93 in 10.0 mi Calm Calm - N/A   Clear
8:56 PM 45.0 °F - 39.9 °F 82% 29.94 in 10.0 mi Calm Calm - N/A   Scattered Clouds
9:56 PM 46.9 °F - 38.8 °F 73% 29.96 in 10.0 mi Calm Calm - N/A   Clear
10:56 PM 45.9 °F 43.6 °F 39.9 °F 80% 29.96 in 10.0 mi East 4.6 mph - N/A   Clear
11:56 PM 46.9 °F - 37.9 °F 71% 29.95 in 10.0 mi Variable 5.8 mph - N/A   Clear